AMX015 SACO-SUMU

Flight info

Callsign AMX015
Flight time 1h 8m
Altitude 37000
Route GENAS1G GENAS UW6 PAR UL417 NIMBO
Aircraft B738/M-SDGIJ1LRWY/SB1

Departure

Time 2026-05-07 06:55
Airport Ingeniero Aeronáutico Ambrosio L.V. Taravella International Airport (SACO)

Arrival

Time 2026-05-07 08:04
Airport Carrasco General Cesáreo L. Berisso International Airport (SUMU)
Time Latitude Longitude Altitude Speed Heading
2026-05-07 06:22 -31.31683 -64.21166 1565 ft 0 kts 301°
2026-05-07 06:41 -31.31687 -64.21159 1564 ft 2 kts 298°
2026-05-07 06:42 -31.31693 -64.21143 1564 ft 2 kts 292°
2026-05-07 06:42 -31.31699 -64.21127 1563 ft 2 kts 295°
2026-05-07 06:42 -31.31705 -64.21111 1562 ft 2 kts 294°
2026-05-07 06:42 -31.31710 -64.21098 1562 ft 1 kts 292°
2026-05-07 06:43 -31.31713 -64.21092 1561 ft 0 kts 350°
2026-05-07 06:43 -31.31719 -64.21092 1561 ft 1 kts 359°
2026-05-07 06:43 -31.31720 -64.21092 1561 ft 0 kts 359°
2026-05-07 06:45 -31.31719 -64.21092 1561 ft 1 kts 358°
2026-05-07 06:45 -31.31709 -64.21093 1561 ft 0 kts 358°
2026-05-07 06:46 -31.31707 -64.21093 1562 ft 0 kts 358°
2026-05-07 06:46 -31.31678 -64.21094 1562 ft 8 kts 356°
2026-05-07 06:46 -31.31611 -64.21096 1563 ft 9 kts
2026-05-07 06:47 -31.31549 -64.21083 1565 ft 7 kts 15°
2026-05-07 06:47 -31.31506 -64.21062 1566 ft 5 kts 32°
2026-05-07 06:47 -31.31479 -64.21030 1566 ft 5 kts 54°
2026-05-07 06:47 -31.31463 -64.20977 1565 ft 8 kts 85°
2026-05-07 06:48 -31.31463 -64.20953 1564 ft 0 kts 92°
2026-05-07 06:50 -31.31456 -64.20875 1561 ft 17 kts 66°
2026-05-07 06:50 -31.31349 -64.20829 1561 ft 17 kts 359°
2026-05-07 06:50 -31.31236 -64.20830 1564 ft 15 kts 359°
2026-05-07 06:50 -31.31127 -64.20832 1567 ft 15 kts 359°
2026-05-07 06:51 -31.31016 -64.20833 1571 ft 16 kts 359°
2026-05-07 06:51 -31.30897 -64.20835 1573 ft 18 kts 359°
2026-05-07 06:51 -31.30765 -64.20837 1577 ft 19 kts 359°
2026-05-07 06:51 -31.30626 -64.20839 1582 ft 20 kts 359°
2026-05-07 06:52 -31.30476 -64.20841 1585 ft 22 kts 359°
2026-05-07 06:52 -31.30324 -64.20843 1591 ft 20 kts 359°
2026-05-07 06:52 -31.30185 -64.20845 1594 ft 18 kts 360°
2026-05-07 06:52 -31.30066 -64.20847 1598 ft 15 kts 358°
2026-05-07 06:53 -31.29965 -64.20850 1601 ft 15 kts 358°
2026-05-07 06:53 -31.29847 -64.20852 1604 ft 18 kts 359°
2026-05-07 06:53 -31.29726 -64.20863 1606 ft 16 kts 348°
2026-05-07 06:53 -31.29642 -64.20888 1609 ft 7 kts 351°
2026-05-07 06:54 -31.29626 -64.20864 1609 ft 6 kts 147°
2026-05-07 06:54 -31.29677 -64.20855 1607 ft 8 kts 181°
2026-05-07 06:54 -31.29696 -64.20855 1607 ft 0 kts 179°
2026-05-07 06:54 -31.29713 -64.20855 1606 ft 18 kts 179°
2026-05-07 06:55 -31.30080 -64.20850 1597 ft 84 kts 179°
2026-05-07 06:55 -31.30866 -64.20835 1574 ft 139 kts 180°
2026-05-07 06:55 -31.31967 -64.20800 1707 ft 167 kts 179°
2026-05-07 06:55 -31.33125 -64.20702 2275 ft 168 kts 176°
2026-05-07 06:56 -31.34182 -64.20266 3002 ft 166 kts 146°
2026-05-07 06:56 -31.34804 -64.19100 3466 ft 185 kts 112°
2026-05-07 06:56 -31.35128 -64.17576 3825 ft 198 kts 113°
2026-05-07 06:56 -31.35558 -64.16005 4198 ft 210 kts 117°
2026-05-07 06:57 -31.36123 -64.14401 4673 ft 216 kts 120°
2026-05-07 06:57 -31.36740 -64.12771 5131 ft 225 kts 120°
2026-05-07 06:57 -31.37365 -64.11101 5727 ft 228 kts 119°
2026-05-07 06:57 -31.38047 -64.09327 6091 ft 243 kts 119°
2026-05-07 06:58 -31.38700 -64.07618 7090 ft 229 kts 117°
2026-05-07 06:58 -31.39360 -64.05847 7470 ft 245 kts 114°
2026-05-07 06:58 -31.39710 -64.03915 8120 ft 251 kts 95°
2026-05-07 06:58 -31.39690 -64.01785 8413 ft 271 kts 90°
2026-05-07 06:59 -31.39605 -63.99548 8805 ft 285 kts 89°
2026-05-07 06:59 -31.39539 -63.97185 9349 ft 294 kts 89°
2026-05-07 06:59 -31.39499 -63.94780 9985 ft 299 kts 88°
2026-05-07 06:59 -31.39467 -63.92321 10422 ft 313 kts 88°
2026-05-07 07:00 -31.39434 -63.89687 10791 ft 330 kts 88°
2026-05-07 07:00 -31.39398 -63.86957 11154 ft 345 kts 88°
2026-05-07 07:00 -31.39359 -63.84112 11481 ft 361 kts 87°
2026-05-07 07:00 -31.39316 -63.81110 11853 ft 376 kts 87°
2026-05-07 07:01 -31.39271 -63.78000 12238 ft 389 kts 86°
2026-05-07 07:01 -31.39225 -63.74804 12815 ft 396 kts 86°
2026-05-07 07:01 -31.39180 -63.71545 13474 ft 401 kts 85°
2026-05-07 07:01 -31.39132 -63.68279 14057 ft 408 kts 85°
2026-05-07 07:02 -31.39123 -63.64966 14729 ft 414 kts 87°
2026-05-07 07:02 -31.39306 -63.61557 15368 ft 423 kts 91°
2026-05-07 07:02 -31.39690 -63.58157 15972 ft 430 kts 94°
2026-05-07 07:02 -31.40200 -63.54701 16603 ft 436 kts 96°
2026-05-07 07:03 -31.40778 -63.51152 17113 ft 445 kts 96°
2026-05-07 07:03 -31.41367 -63.47633 17808 ft 448 kts 96°
2026-05-07 07:03 -31.41967 -63.44022 18305 ft 456 kts 96°
2026-05-07 07:03 -31.42566 -63.40341 18888 ft 461 kts 96°
2026-05-07 07:04 -31.43148 -63.36696 19530 ft 465 kts 96°
2026-05-07 07:04 -31.43735 -63.32953 20096 ft 470 kts 95°
2026-05-07 07:04 -31.44320 -63.29182 20679 ft 474 kts 95°
2026-05-07 07:04 -31.44906 -63.25377 21206 ft 479 kts 95°
2026-05-07 07:05 -31.45497 -63.21518 21722 ft 484 kts 96°
2026-05-07 07:05 -31.46085 -63.17657 22196 ft 489 kts 95°
2026-05-07 07:05 -31.46680 -63.13749 22749 ft 492 kts 95°
2026-05-07 07:05 -31.47261 -63.09777 23215 ft 498 kts 95°
2026-05-07 07:06 -31.47826 -63.05771 23811 ft 499 kts 94°
2026-05-07 07:06 -31.48383 -63.01732 24148 ft 507 kts 94°
2026-05-07 07:06 -31.48931 -62.97702 24653 ft 510 kts 94°
2026-05-07 07:06 -31.49489 -62.93573 25082 ft 515 kts 95°
2026-05-07 07:07 -31.50051 -62.89432 25679 ft 516 kts 94°
2026-05-07 07:07 -31.50611 -62.85315 26068 ft 522 kts 95°
2026-05-07 07:07 -31.51189 -62.81059 26413 ft 528 kts 95°
2026-05-07 07:07 -31.51765 -62.76827 27011 ft 528 kts 95°
2026-05-07 07:08 -31.52345 -62.72564 27323 ft 534 kts 95°
2026-05-07 07:08 -31.52926 -62.68298 27788 ft 536 kts 96°
2026-05-07 07:08 -31.53513 -62.63985 28405 ft 535 kts 95°
2026-05-07 07:08 -31.54092 -62.59721 29032 ft 533 kts 96°
2026-05-07 07:09 -31.54672 -62.55444 29607 ft 532 kts 95°
2026-05-07 07:09 -31.55249 -62.51166 30173 ft 531 kts 95°
2026-05-07 07:09 -31.55820 -62.46917 30759 ft 529 kts 95°
2026-05-07 07:09 -31.56391 -62.42672 31333 ft 527 kts 94°
2026-05-07 07:10 -31.56955 -62.38465 31877 ft 525 kts 95°
2026-05-07 07:10 -31.57517 -62.34271 32319 ft 526 kts 95°
2026-05-07 07:10 -31.58087 -62.29998 32805 ft 524 kts 94°
2026-05-07 07:10 -31.58643 -62.25822 33293 ft 522 kts 94°
2026-05-07 07:11 -31.59193 -62.21678 33751 ft 520 kts 93°
2026-05-07 07:11 -31.59749 -62.17480 34121 ft 520 kts 94°
2026-05-07 07:11 -31.60297 -62.13305 34408 ft 521 kts 94°
2026-05-07 07:11 -31.60850 -62.09079 34645 ft 523 kts 94°
2026-05-07 07:12 -31.61398 -62.04874 34893 ft 524 kts 93°
2026-05-07 07:12 -31.61939 -62.00721 35221 ft 523 kts 94°
2026-05-07 07:12 -31.62493 -61.96473 35519 ft 522 kts 94°
2026-05-07 07:12 -31.63038 -61.92281 35806 ft 521 kts 94°
2026-05-07 07:13 -31.63580 -61.88098 36057 ft 522 kts 95°
2026-05-07 07:13 -31.64125 -61.83874 36291 ft 524 kts 95°
2026-05-07 07:13 -31.64667 -61.79652 36459 ft 527 kts 94°
2026-05-07 07:13 -31.65207 -61.75438 36667 ft 528 kts 95°
2026-05-07 07:14 -31.66295 -61.66950 36652 ft 522 kts 94°
2026-05-07 07:14 -31.67368 -61.58538 36648 ft 523 kts 94°
2026-05-07 07:15 -31.68437 -61.50072 36643 ft 523 kts 94°
2026-05-07 07:15 -31.69499 -61.41607 36643 ft 523 kts 94°
2026-05-07 07:16 -31.70557 -61.33189 36700 ft 523 kts 93°
2026-05-07 07:16 -31.71602 -61.24838 36640 ft 518 kts 94°
2026-05-07 07:17 -31.72632 -61.16494 36639 ft 520 kts 94°
2026-05-07 07:17 -31.73663 -61.08125 36638 ft 518 kts 93°
2026-05-07 07:18 -31.74183 -61.03883 36754 ft 522 kts 93°
2026-05-07 07:18 -31.74696 -60.99677 36943 ft 523 kts 93°
2026-05-07 07:18 -31.75208 -60.95474 37255 ft 522 kts 94°
2026-05-07 07:18 -31.75720 -60.91273 37592 ft 521 kts 94°
2026-05-07 07:19 -31.76230 -60.87071 37815 ft 521 kts 94°
2026-05-07 07:19 -31.76743 -60.82819 37949 ft 524 kts 94°
2026-05-07 07:19 -31.77250 -60.78605 38122 ft 525 kts 94°
2026-05-07 07:19 -31.77755 -60.74403 38394 ft 524 kts 94°
2026-05-07 07:20 -31.78260 -60.70184 38634 ft 523 kts 94°
2026-05-07 07:20 -31.78770 -60.65908 38653 ft 525 kts 94°
2026-05-07 07:20 -31.79786 -60.57491 38640 ft 521 kts 96°
2026-05-07 07:21 -31.81527 -60.49256 38640 ft 527 kts 112°
2026-05-07 07:21 -31.85117 -60.41792 38652 ft 525 kts 126°
2026-05-07 07:22 -31.89449 -60.34925 38641 ft 521 kts 130°
2026-05-07 07:22 -31.93970 -60.28212 38644 ft 521 kts 130°
2026-05-07 07:23 -31.98427 -60.21600 38652 ft 520 kts 130°
2026-05-07 07:23 -32.02884 -60.14901 38648 ft 516 kts 129°
2026-05-07 07:24 -32.07274 -60.08217 38647 ft 518 kts 129°
2026-05-07 07:24 -32.11649 -60.01513 38647 ft 515 kts 129°
2026-05-07 07:25 -32.18172 -59.91478 38629 ft 516 kts 129°
2026-05-07 07:26 -32.22522 -59.84771 38644 ft 518 kts 129°
2026-05-07 07:26 -32.26883 -59.78037 38647 ft 517 kts 128°
2026-05-07 07:27 -32.31260 -59.71269 38636 ft 517 kts 129°
2026-05-07 07:27 -32.35620 -59.64511 38640 ft 516 kts 128°
2026-05-07 07:28 -32.39963 -59.57766 38634 ft 516 kts 129°
2026-05-07 07:28 -32.44288 -59.51041 38642 ft 516 kts 128°
2026-05-07 07:29 -32.48623 -59.44292 38634 ft 515 kts 128°
2026-05-07 07:29 -32.52943 -59.37557 38642 ft 515 kts 128°
2026-05-07 07:30 -32.57238 -59.30833 38647 ft 512 kts 127°
2026-05-07 07:30 -32.61538 -59.24077 38638 ft 512 kts 127°
2026-05-07 07:31 -32.65799 -59.17366 38638 ft 511 kts 127°
2026-05-07 07:31 -32.70056 -59.10652 38642 ft 508 kts 127°
2026-05-07 07:32 -32.74294 -59.03956 38641 ft 506 kts 127°
2026-05-07 07:32 -32.78484 -58.97321 38648 ft 505 kts 127°
2026-05-07 07:33 -32.82701 -58.90636 38639 ft 504 kts 127°
2026-05-07 07:33 -32.86874 -58.84005 38648 ft 504 kts 127°
2026-05-07 07:34 -32.91068 -58.77324 38640 ft 503 kts 126°
2026-05-07 07:34 -32.95246 -58.70655 38631 ft 501 kts 126°
2026-05-07 07:35 -32.99390 -58.64030 38630 ft 503 kts 126°
2026-05-07 07:35 -33.03653 -58.57424 38619 ft 503 kts 129°
2026-05-07 07:36 -33.08207 -58.51147 38631 ft 503 kts 132°
2026-05-07 07:36 -33.12889 -58.44904 38627 ft 504 kts 132°
2026-05-07 07:37 -33.17518 -58.38683 38627 ft 506 kts 131°
2026-05-07 07:37 -33.22128 -58.32401 38638 ft 504 kts 131°
2026-05-07 07:38 -33.26747 -58.26047 38628 ft 506 kts 130°
2026-05-07 07:38 -33.31352 -58.19687 38634 ft 508 kts 130°
2026-05-07 07:39 -33.35951 -58.13312 38631 ft 509 kts 131°
2026-05-07 07:39 -33.40574 -58.06903 38639 ft 507 kts 131°
2026-05-07 07:40 -33.45189 -58.00482 38638 ft 510 kts 130°
2026-05-07 07:40 -33.47486 -57.97280 38479 ft 507 kts 131°
2026-05-07 07:40 -33.49753 -57.94117 38090 ft 502 kts 130°
2026-05-07 07:40 -33.52035 -57.90930 37582 ft 498 kts 131°
2026-05-07 07:41 -33.54269 -57.87805 36990 ft 498 kts 131°
2026-05-07 07:41 -33.56504 -57.84674 36381 ft 498 kts 130°
2026-05-07 07:41 -33.58744 -57.81529 35737 ft 498 kts 131°
2026-05-07 07:41 -33.61004 -57.78355 35064 ft 499 kts 131°
2026-05-07 07:42 -33.63252 -57.75192 34332 ft 500 kts 131°
2026-05-07 07:42 -33.65521 -57.71997 33697 ft 498 kts 131°
2026-05-07 07:42 -33.67746 -57.68863 33279 ft 498 kts 131°
2026-05-07 07:42 -33.69994 -57.65693 32778 ft 503 kts 131°
2026-05-07 07:43 -33.72264 -57.62492 32252 ft 501 kts 131°
2026-05-07 07:43 -33.74498 -57.59342 31733 ft 498 kts 131°
2026-05-07 07:43 -33.76735 -57.56183 31215 ft 494 kts 131°
2026-05-07 07:43 -33.78946 -57.53053 30693 ft 491 kts 131°
2026-05-07 07:44 -33.81145 -57.49938 30173 ft 488 kts 131°
2026-05-07 07:44 -33.83332 -57.46840 29657 ft 485 kts 131°
2026-05-07 07:44 -33.85506 -57.43758 29136 ft 482 kts 131°
2026-05-07 07:44 -33.87658 -57.40706 28617 ft 479 kts 131°
2026-05-07 07:45 -33.89782 -57.37694 28107 ft 476 kts 130°
2026-05-07 07:45 -33.91916 -57.34665 27590 ft 473 kts 130°
2026-05-07 07:45 -33.94040 -57.31653 27069 ft 469 kts 130°
2026-05-07 07:45 -33.96126 -57.28691 26561 ft 466 kts 130°
2026-05-07 07:46 -33.98222 -57.25711 26037 ft 463 kts 130°
2026-05-07 07:46 -34.00280 -57.22782 25523 ft 461 kts 130°
2026-05-07 07:46 -34.02342 -57.19850 25005 ft 458 kts 129°
2026-05-07 07:46 -34.04184 -57.17227 24544 ft 456 kts 129°
2026-05-07 07:47 -34.06211 -57.14339 24030 ft 453 kts 129°
2026-05-07 07:47 -34.08231 -57.11457 23514 ft 451 kts 129°
2026-05-07 07:47 -34.10254 -57.08569 22994 ft 449 kts 129°
2026-05-07 07:47 -34.12260 -57.05705 22477 ft 446 kts 129°
2026-05-07 07:48 -34.14243 -57.02870 21962 ft 443 kts 129°
2026-05-07 07:48 -34.16221 -57.00041 21445 ft 441 kts 129°
2026-05-07 07:48 -34.18191 -56.97220 20935 ft 439 kts 129°
2026-05-07 07:48 -34.20143 -56.94421 20424 ft 436 kts 129°
2026-05-07 07:49 -34.22086 -56.91632 19912 ft 434 kts 128°
2026-05-07 07:49 -34.24014 -56.88860 19401 ft 432 kts 129°
2026-05-07 07:49 -34.25938 -56.86095 18878 ft 430 kts 128°
2026-05-07 07:49 -34.27854 -56.83337 18320 ft 425 kts 128°
2026-05-07 07:50 -34.29707 -56.80660 17839 ft 412 kts 128°
2026-05-07 07:50 -34.31519 -56.78039 17349 ft 400 kts 129°
2026-05-07 07:50 -34.33268 -56.75512 16908 ft 392 kts 129°
2026-05-07 07:50 -34.35028 -56.72968 16373 ft 392 kts 129°
2026-05-07 07:51 -34.36775 -56.70443 15894 ft 391 kts 129°
2026-05-07 07:51 -34.38497 -56.67950 15427 ft 390 kts 129°
2026-05-07 07:51 -34.40228 -56.65445 14942 ft 389 kts 128°
2026-05-07 07:51 -34.41964 -56.62926 14456 ft 384 kts 129°
2026-05-07 07:52 -34.43644 -56.60486 13992 ft 377 kts 129°
2026-05-07 07:52 -34.45319 -56.58051 13531 ft 371 kts 128°
2026-05-07 07:52 -34.46947 -56.55682 13081 ft 365 kts 129°
2026-05-07 07:52 -34.48549 -56.53348 12633 ft 360 kts 129°
2026-05-07 07:53 -34.50140 -56.51021 12181 ft 353 kts 127°
2026-05-07 07:53 -34.51499 -56.48576 11741 ft 347 kts 115°
2026-05-07 07:53 -34.52415 -56.45886 11309 ft 349 kts 105°
2026-05-07 07:53 -34.53079 -56.43093 10866 ft 345 kts 101°
2026-05-07 07:54 -34.53658 -56.40282 10438 ft 338 kts 101°
2026-05-07 07:54 -34.54219 -56.37554 10016 ft 335 kts 102°
2026-05-07 07:54 -34.54809 -56.34848 9767 ft 327 kts 102°
2026-05-07 07:54 -34.55397 -56.32284 9598 ft 313 kts 103°
2026-05-07 07:55 -34.55992 -56.29749 9234 ft 309 kts 103°
2026-05-07 07:55 -34.56581 -56.27256 8834 ft 310 kts 103°
2026-05-07 07:55 -34.57172 -56.24760 8452 ft 309 kts 103°
2026-05-07 07:55 -34.57763 -56.22265 8077 ft 308 kts 103°
2026-05-07 07:56 -34.58351 -56.19773 7704 ft 307 kts 103°
2026-05-07 07:56 -34.58935 -56.17291 7334 ft 307 kts 103°
2026-05-07 07:56 -34.59522 -56.14794 6958 ft 306 kts 104°
2026-05-07 07:56 -34.60104 -56.12338 6587 ft 305 kts 104°
2026-05-07 07:57 -34.60689 -56.09849 6216 ft 305 kts 104°
2026-05-07 07:57 -34.61268 -56.07388 5841 ft 304 kts 104°
2026-05-07 07:57 -34.61840 -56.04945 5472 ft 303 kts 104°
2026-05-07 07:57 -34.62415 -56.02495 5098 ft 303 kts 104°
2026-05-07 07:58 -34.62989 -56.00038 4723 ft 303 kts 104°
2026-05-07 07:58 -34.63553 -55.97636 4544 ft 287 kts 104°
2026-05-07 07:58 -34.64082 -55.95384 4506 ft 269 kts 104°
2026-05-07 07:58 -34.64652 -55.93232 4447 ft 268 kts 112°
2026-05-07 07:59 -34.65618 -55.91332 4225 ft 259 kts 138°
2026-05-07 07:59 -34.67023 -55.90015 3880 ft 256 kts 152°
2026-05-07 07:59 -34.68525 -55.88855 3555 ft 255 kts 151°
2026-05-07 07:59 -34.69956 -55.87701 3410 ft 240 kts 153°
2026-05-07 08:00 -34.71389 -55.86792 3391 ft 224 kts 167°
2026-05-07 08:00 -34.72819 -55.86592 3291 ft 196 kts 203°
2026-05-07 08:00 -34.73962 -55.87309 2974 ft 178 kts 233°
2026-05-07 08:00 -34.74766 -55.88400 2705 ft 172 kts 240°
2026-05-07 08:01 -34.75496 -55.89514 2488 ft 162 kts 241°
2026-05-07 08:01 -34.76151 -55.90547 2295 ft 146 kts 243°
2026-05-07 08:01 -34.76756 -55.91553 2076 ft 148 kts 244°
2026-05-07 08:01 -34.77372 -55.92550 1870 ft 146 kts 242°
2026-05-07 08:02 -34.77989 -55.93546 1678 ft 148 kts 243°
2026-05-07 08:02 -34.78597 -55.94544 1470 ft 146 kts 242°
2026-05-07 08:02 -34.79204 -55.95533 1278 ft 148 kts 240°
2026-05-07 08:02 -34.79811 -55.96518 1075 ft 144 kts 239°
2026-05-07 08:03 -34.80410 -55.97497 892 ft 147 kts 239°
2026-05-07 08:03 -34.81015 -55.98484 697 ft 143 kts 237°
2026-05-07 08:03 -34.81621 -55.99462 498 ft 144 kts 236°
2026-05-07 08:03 -34.82215 -56.00435 311 ft 144 kts 236°
2026-05-07 08:04 -34.82810 -56.01389 120 ft 142 kts 234°
2026-05-07 08:04 -34.83343 -56.02269 77 ft 98 kts 234°
2026-05-07 08:04 -34.83610 -56.02703 71 ft 38 kts 232°
2026-05-07 08:04 -34.83712 -56.02851 69 ft 15 kts 217°
2026-05-07 08:05 -34.83799 -56.02854 65 ft 13 kts 175°
2026-05-07 08:05 -34.83895 -56.02831 63 ft 14 kts 149°
2026-05-07 08:05 -34.83952 -56.02788 62 ft 10 kts 145°
2026-05-07 08:05 -34.83977 -56.02701 61 ft 13 kts 64°
2026-05-07 08:06 -34.83948 -56.02607 63 ft 11 kts 82°
2026-05-07 08:06 -34.83947 -56.02515 63 ft 10 kts 91°
2026-05-07 08:06 -34.83948 -56.02418 63 ft 12 kts 90°
2026-05-07 08:06 -34.83949 -56.02323 63 ft 8 kts 89°
2026-05-07 08:07 -34.83921 -56.02262 64 ft 9 kts 29°
2026-05-07 08:07 -34.83863 -56.02246 66 ft 7 kts
2026-05-07 08:07 -34.83823 -56.02240 68 ft 4 kts
2026-05-07 08:07 -34.83786 -56.02228 69 ft 7 kts 27°
2026-05-07 08:08 -34.83733 -56.02161 71 ft 12 kts 56°
2026-05-07 08:08 -34.83690 -56.02085 73 ft 10 kts 54°
2026-05-07 08:08 -34.83653 -56.02022 74 ft 8 kts 54°
2026-05-07 08:08 -34.83621 -56.01968 75 ft 7 kts 54°
2026-05-07 08:09 -34.83593 -56.01919 75 ft 6 kts 54°
2026-05-07 08:09 -34.83577 -56.01881 77 ft 3 kts 89°
2026-05-07 08:09 -34.83586 -56.01854 77 ft 3 kts 117°
2026-05-07 08:09 -34.83600 -56.01828 77 ft 4 kts 127°
2026-05-07 08:10 -34.83622 -56.01800 76 ft 3 kts 139°
2026-05-07 08:10 -34.83631 -56.01792 75 ft 0 kts 142°